sat.trackr.live / text

‹ back to catalog

ONEWEB-0411

NORAD 51623 · 2022-012B

PAYLOAD ACTIVE UNKNOWN

§ Identity

Operator
Country
UK
Launch date
2022-02-10
Launch site
FRGUI
Launch vehicle
Mass (kg)
RCS (m²)

Purposes: comms

External: N2YO · Heavens-Above · Gunter

§ Orbital elements

Epoch: 2026-05-25T02:32:16.413792Z

Period
109.89 min
Inclination
87.8856°
Eccentricity
0.0001252
Mean motion
13.10370709 rev/d
Perigee alt
1,220.8 km
Apogee alt
1,222.7 km
Semi-major
7,599.9 km
B*
-4.4639e-4
RAAN
40.8601°
Arg perigee
82.8915°
Mean anomaly
277.2354°
Rev number
20,626

§ Raw data

ONEWEB-04111 51623U 22012B   26145.10574553 -.00000143  00000+0 -44639-3 0  99902 51623  87.8856  40.8601 0001252  82.8915 277.2354 13.10370709206260

JSON: /api/v1/satellites/51623 · /tle

For live sub-satellite position, see the globe view (requires WebGL).

§ Visibility from observer

Set your observer location to see the next 7 days of passes ≥ 10°. The values pass through the URL so the page stays shareable.

No JS? Fill the form by hand. The geolocation button needs JavaScript.